Change the Weather History Date:

Saturday, July 13, 2013

  Actual Average Record
Temperature  
Mean Temperature 78 °F -  
Max Temperature 94 °F - - ()
Min Temperature 62 °F - - ()
Cooling Degree Days 13    
Growing Degree Days 28 (Base 50)    
Moisture  
Dew Point 59 °F    
Average Humidity 57    
Maximum Humidity 94    
Minimum Humidity 17    
Precipitation  
Precipitation 0.00 in - - ()
Sea Level Pressure  
Sea Level Pressure 29.91 in    
Wind  
Wind Speed 4 mph ()    
Max Wind Speed 25 mph    
Max Gust Speed -    
T = Trace of Precipitation, MM = Missing Value Source: Averaged Metar Reports

Daily Weather History Graph

Daily Weather History Graph

Search for Another Location

Airport or City:

Trip Planner

Search our weather history database for the weather conditions in past years. The results will help you decide how hot, cold, wet, or windy it might be!

Date:

Astronomy

Jul. 13, 2013 Rise Set
Actual Time 5:53 AM AWST 5:08 PM AWST
Civil Twilight 5:30 AM AWST 5:31 PM AWST
Nautical Twilight 5:03 AM AWST 5:58 PM AWST
Astronomical Twilight 4:37 AM AWST 6:24 PM AWST
Moon 8:57 AM AWST (7/13) 9:16 PM AWST (7/13)
Length of Visible Light 12h 01m
Length of Day
11h 15m
Waxing Crescent, 21% of the Moon is Illuminated
Jul 13
Waxing Crescent
Jul 16
First Quarter
Jul 23
Full
Jul 30
Last Quarter
Aug 7
New

Hourly Weather History & Observations

Time (AWST) Temp. Heat Index Dew Point Humidity Pressure Visibility Wind Dir Wind Speed Gust Speed Precip Events Conditions
12:00 AM 67 °F - 60 °F 73% 29.93 in - NNE 2.2 mph - -  
12:00 AM 68.0 °F - 60.8 °F 78% 29.92 in - NNE 1.2 mph - N/A   Unknown
12:30 AM 68.0 °F - 60.8 °F 78% 29.92 in - North 3.5 mph - N/A   Unknown
1:00 AM 68.0 °F - 60.8 °F 78% 29.92 in - Calm Calm - N/A   Unknown
1:30 AM 66.2 °F - 60.8 °F 83% 29.92 in - Calm Calm - N/A   Unknown
2:00 AM 66.2 °F - 60.8 °F 83% 29.92 in - Calm Calm - N/A   Unknown
2:30 AM 66.2 °F - 60.8 °F 83% 29.92 in - Calm Calm - N/A   Unknown
3:00 AM 65 °F - 60 °F 78% 29.91 in - Calm Calm - -  
3:00 AM 66.2 °F - 59.0 °F 78% 29.89 in - Calm Calm - N/A   Unknown
3:30 AM 64.4 °F - 60.8 °F 88% 29.92 in - Calm Calm - N/A   Unknown
4:00 AM 64.4 °F - 60.8 °F 88% 29.92 in - Calm Calm - N/A   Unknown
4:30 AM 64.4 °F - 60.8 °F 88% 29.92 in - Calm Calm - N/A   Unknown
5:00 AM 65 °F - 61 °F 82% 29.92 in - Calm Calm - -  
5:00 AM 64.4 °F - 60.8 °F 88% 29.92 in - Calm Calm - N/A   Unknown
5:30 AM 62.6 °F - 60.8 °F 94% 29.92 in - NNE 2.3 mph - N/A   Unknown
6:00 AM 65 °F - 62 °F 86% 29.94 in - ESE 2.2 mph - -  
6:00 AM 64.4 °F - 62.6 °F 94% 29.92 in - ESE 1.2 mph - N/A   Unknown
6:30 AM 66.2 °F - 62.6 °F 88% 29.95 in - ESE 2.3 mph - N/A   Unknown
7:00 AM 69.8 °F - 62.6 °F 78% 29.95 in - Calm Calm - N/A   Unknown
7:30 AM 73.4 °F - 64.4 °F 73% 29.98 in - SSE 1.2 mph - N/A   Unknown
8:00 AM 78 °F - 61 °F 47% 29.99 in - South 6.7 mph - -  
8:00 AM 78.8 °F - 60.8 °F 54% 29.98 in - South 3.5 mph - N/A   Unknown
8:30 AM 80.6 °F 81.5 °F 60.8 °F 51% 29.98 in - South 3.5 mph - N/A   Unknown
9:00 AM 84 °F - 59 °F 32% 29.99 in - NNE 6.7 mph - -  
9:00 AM 84.2 °F 83.8 °F 59.0 °F 42% 29.98 in - NNE 3.5 mph - N/A   Unknown
9:30 AM 86.0 °F 85.4 °F 59.0 °F 40% 29.98 in - NE 8.1 mph - N/A   Unknown
10:00 AM 89.6 °F 88.9 °F 59.0 °F 36% 29.98 in - ENE 10.4 mph - N/A   Unknown
10:30 AM 89.6 °F 88.1 °F 57.2 °F 33% 29.95 in - East 11.5 mph - N/A   Unknown
11:00 AM 91 °F - 56 °F 21% 29.94 in - ENE 9.2 mph - -  
11:00 AM 91.4 °F 89.4 °F 55.4 °F 29% 29.92 in - ENE 9.2 mph - N/A   Unknown
11:30 AM 91.4 °F 89.4 °F 55.4 °F 29% 29.92 in - ENE 10.4 mph - N/A   Unknown
12:00 PM 90 °F - 56 °F 22% 29.90 in - East 17.9 mph - -  
12:00 PM 89.6 °F 87.7 °F 55.4 °F 31% 29.89 in - East 9.2 mph - N/A   Mostly Cloudy
12:30 PM 91.4 °F 89.4 °F 55.4 °F 29% 29.89 in - SSE 9.2 mph - N/A   Mostly Cloudy
1:00 PM 91.4 °F 89.1 °F 53.6 °F 28% 29.86 in - ESE 12.7 mph - N/A   Scattered Clouds
1:30 PM 91.4 °F 89.1 °F 53.6 °F 28% 29.86 in - ESE 11.5 mph - N/A   Unknown
2:00 PM 92 °F - 53 °F 17% 29.85 in - ENE 24.6 mph - -  
2:00 PM 93.2 °F 90.8 °F 53.6 °F 26% 29.83 in - ENE 12.7 mph - N/A   Unknown
2:30 PM 93.2 °F 90.8 °F 53.6 °F 26% 29.83 in - East 10.4 mph - N/A   Unknown
3:00 PM 92 °F - 53 °F 18% 29.84 in - NE 15.7 mph - -  
3:00 PM 93.2 °F 90.8 °F 53.6 °F 26% 29.83 in - NE 8.1 mph - N/A   Unknown
3:30 PM 91.4 °F 89.1 °F 53.6 °F 28% 29.83 in - East 8.1 mph - N/A   Unknown
4:00 PM 91.4 °F 89.1 °F 53.6 °F 28% 29.83 in - East 8.1 mph - N/A   Unknown
4:30 PM 89.6 °F 87.3 °F 53.6 °F 29% 29.83 in - ESE 8.1 mph - N/A   Unknown
5:00 PM 85 °F - 60 °F 32% 29.85 in - ENE 11.2 mph - -  
5:00 PM 86.0 °F 86.1 °F 60.8 °F 43% 29.83 in - ENE 5.8 mph - N/A   Unknown
5:30 PM 84.2 °F 83.5 °F 57.2 °F 40% 29.86 in - ENE 4.6 mph - N/A   Unknown
6:00 PM 79 °F - 61 °F 44% 29.86 in - Calm Calm - -  
6:00 PM 78.8 °F - 60.8 °F 54% 29.86 in - Calm Calm - N/A   Unknown
6:30 PM 75.2 °F - 59.0 °F 57% 29.86 in - Calm Calm - N/A   Unknown
7:00 PM 75.2 °F - 64.4 °F 69% 29.89 in - Calm Calm - N/A   Unknown
7:30 PM 73.4 °F - 62.6 °F 69% 29.89 in - ESE 1.2 mph - N/A   Unknown
8:00 PM 71 °F - 62 °F 67% 29.90 in - Calm Calm - -  
8:00 PM 71.6 °F - 62.6 °F 73% 29.89 in - Calm Calm - N/A   Unknown
8:30 PM 71.6 °F - 62.6 °F 73% 29.89 in - Calm Calm - N/A   Unknown
9:00 PM 70 °F - 60 °F 64% 29.91 in - SSE 8.9 mph - -  
9:00 PM 69.8 °F - 60.8 °F 73% 29.92 in - SSE 4.6 mph - N/A   Unknown
9:30 PM 69.8 °F - 60.8 °F 73% 29.92 in - Calm Calm - N/A   Unknown
10:00 PM 69.8 °F - 59.0 °F 68% 29.92 in - Calm Calm - N/A   Unknown
10:30 PM 68.0 °F - 59.0 °F 73% 29.92 in - Calm Calm - N/A   Unknown
11:00 PM 68 °F - 58 °F 64% 29.92 in - West 6.7 mph - -  
11:00 PM 68.0 °F - 59.0 °F 73% 29.92 in - West 3.5 mph - N/A   Unknown
11:30 PM 68.0 °F - 59.0 °F 73% 29.92 in - WNW 3.5 mph - N/A   Unknown